Regional Weather Roundup
Issued by NWS

Home | Current Version | Previous Version | Text Only | Print | Product List | Glossary On
Versions: 1 2 3 4 5 6 7 8 9 10 11 12 13 14 15 16 17 18 19 20 21 22 23 24 25 26 27 28 29 30 31 32 33 34 35 36 37 38 39 40 41 42 43 44 45 46 47 48 49 50
000
ASCA42 TJSJ 192110
RWRPR
PUERTO RICO/U.S. VIRGIN ISLANDS HOURLY WEATHER ROUNDUP
NATIONAL WEATHER SERVICE SAN JUAN PR
500 PM AST TUE SEP 19 2017

PRZ001>002-007>008-010-192200-
PUERTO RICO

CITY           SKY/WX    TMP DP  RH WIND       PRES   REMARKS
SAN JUAN LMM   PTSUNNY   82  75  78 NE22G31   29.83R
AGUADILLA      PTSUNNY   81  75  83 NE14G20   29.88R
CEIBA          LGT RAIN  79  75  89 N17G29    29.81F
$$

VIZ001>002-192200-
U.S. VIRGIN ISLANDS

CITY           SKY/WX    TMP DP  RH WIND       PRES   REMARKS
CHARLOTTE AMA  LGT RAIN  81  79  94 NE25G43   29.75F
CHRISTIANSTED  LGT RAIN  79  77  94 NE29G41   29.64F FOG
$$

HOURLY WEATHER ROUNDUP FOR THE NEWS MEDIA

CITY           SKY/WX    TMP DP  RH WIND       PRES   REMARKS
NEW YORK       CLOUDY    72  66  81 N18G28    29.89R
NEWARK         LGT RAIN  72  67  84 N16       29.89F
CHICAGO        PTSUNNY   77  62  59 E8        29.92F
HARTFORD       LGT RAIN  66  65  96 NE13G18   29.95S FOG
BOSTON         FOG       64  63  96 N15       30.02F VSB 1/2
DALLAS         PTSUNNY   96  69  41 S13G21    29.80F HX 102
PHILADELPHIA   CLOUDY    78  63  59 N14G26    29.88S
LOS ANGELES    PTSUNNY   73  61  65 W10       29.90F
WASHINGTON DC  MOSUNNY   82  65  56 N8        29.92F


USA.gov is the U.S. government's official web portal to all federal, state and local government web resources and services.